Year,Month,Day,Hour,Minute,Value (Times are PST for barometer in hPa)
2010,04,02,00,00,1006.47
2010,04,02,00,01,1006.40
2010,04,02,00,02,1006.40
2010,04,02,00,03,1006.33
2010,04,02,00,04,1006.23
2010,04,02,00,05,1006.23
2010,04,02,00,06,1006.10
2010,04,02,00,07,1006.09
2010,04,02,00,08,1005.99
2010,04,02,00,09,1005.99
2010,04,02,00,10,1005.96
2010,04,02,00,11,1005.96
2010,04,02,00,12,1005.93
2010,04,02,00,13,1005.96
2010,04,02,00,14,1005.96
2010,04,02,00,15,1005.98
2010,04,02,00,16,1005.86
2010,04,02,00,17,1005.89
2010,04,02,00,18,1005.86
2010,04,02,00,19,1005.89
2010,04,02,00,20,1005.89
2010,04,02,00,21,1005.83
2010,04,02,00,22,1005.83
2010,04,02,00,23,1005.72
2010,04,02,00,24,1005.72
2010,04,02,00,25,1005.62
2010,04,02,00,26,1005.66
2010,04,02,00,27,1005.62
2010,04,02,00,28,1005.62
2010,04,02,00,29,1005.52
2010,04,02,00,30,1005.52
2010,04,02,00,31,1005.52
2010,04,02,00,32,1005.49
2010,04,02,00,33,1005.45
2010,04,02,00,34,1005.49
2010,04,02,00,35,1005.42
2010,04,02,00,36,1005.45
2010,04,02,00,37,1005.35
2010,04,02,00,38,1005.32
2010,04,02,00,39,1005.28
2010,04,02,00,40,1005.25
2010,04,02,00,41,1005.28
2010,04,02,00,42,1005.25
2010,04,02,00,43,1005.18
2010,04,02,00,44,1005.22
2010,04,02,00,45,1005.18
2010,04,02,00,46,1005.11
2010,04,02,00,47,1005.05
2010,04,02,00,48,1005.05
2010,04,02,00,49,1005.05
2010,04,02,00,50,1005.01
2010,04,02,00,51,1004.98
2010,04,02,00,52,1004.98
2010,04,02,00,53,1004.91
2010,04,02,00,54,1004.88
2010,04,02,00,55,1004.84
2010,04,02,00,56,1004.81
2010,04,02,00,57,1004.78
2010,04,02,00,58,1004.71
2010,04,02,00,59,1004.64
2010,04,02,01,00,1004.64
2010,04,02,01,01,1004.71
2010,04,02,01,02,1004.67
2010,04,02,01,03,1004.61
2010,04,02,01,04,1004.64
2010,04,02,01,05,1004.57
2010,04,02,01,06,1004.57
2010,04,02,01,07,1004.50
2010,04,02,01,08,1004.50
2010,04,02,01,09,1004.50
2010,04,02,01,10,1004.47
2010,04,02,01,11,1004.44
2010,04,02,01,12,1004.34
2010,04,02,01,13,1004.34
2010,04,02,01,14,1004.34
2010,04,02,01,15,1004.30
2010,04,02,01,16,1004.34
2010,04,02,01,17,1004.30
2010,04,02,01,18,1004.30
2010,04,02,01,19,1004.27
2010,04,02,01,20,1004.17
2010,04,02,01,21,1004.23
2010,04,02,01,22,1004.23
2010,04,02,01,23,1004.17
2010,04,02,01,24,1004.20
2010,04,02,01,25,1004.17
2010,04,02,01,26,1004.13
2010,04,02,01,27,1004.13
2010,04,02,01,28,1004.10
2010,04,02,01,29,1004.10
2010,04,02,01,30,1004.06
2010,04,02,01,31,1004.10
2010,04,02,01,32,1004.06
2010,04,02,01,33,1004.03
2010,04,02,01,34,1004.06
2010,04,02,01,35,1004.00
2010,04,02,01,36,1003.96
2010,04,02,01,37,1003.96
2010,04,02,01,38,1003.96
2010,04,02,01,39,1003.93
2010,04,02,01,40,1003.90
2010,04,02,01,41,1003.83
2010,04,02,01,42,1003.83
2010,04,02,01,43,1003.79
2010,04,02,01,44,1003.79
2010,04,02,01,45,1003.73
2010,04,02,01,46,1003.69
2010,04,02,01,47,1003.73
2010,04,02,01,48,1003.79
2010,04,02,01,49,1003.73
2010,04,02,01,50,1003.73
2010,04,02,01,51,1003.66
2010,04,02,01,52,1003.62
2010,04,02,01,53,1003.58
2010,04,02,01,54,1003.46
2010,04,02,01,55,1003.42
2010,04,02,01,56,1003.42
2010,04,02,01,57,1003.35
2010,04,02,01,58,1003.39
2010,04,02,01,59,1003.25
2010,04,02,02,00,1003.32
2010,04,02,02,01,1003.35
2010,04,02,02,02,1003.32
2010,04,02,02,03,1003.31
2010,04,02,02,04,1003.22
2010,04,02,02,05,1003.22
2010,04,02,02,06,1003.22
2010,04,02,02,07,1003.18
2010,04,02,02,08,1003.08
2010,04,02,02,09,1003.08
2010,04,02,02,10,1003.08
2010,04,02,02,11,1003.05
2010,04,02,02,12,1003.01
2010,04,02,02,13,1003.05
2010,04,02,02,14,1003.05
2010,04,02,02,15,1003.05
2010,04,02,02,16,1003.05
2010,04,02,02,17,1002.98
2010,04,02,02,18,1002.95
2010,04,02,02,19,1002.95
2010,04,02,02,20,1002.88
2010,04,02,02,21,1002.85
2010,04,02,02,22,1002.74
2010,04,02,02,23,1002.81
2010,04,02,02,24,1002.68
2010,04,02,02,25,1002.68
2010,04,02,02,26,1002.68
2010,04,02,02,27,1002.57
2010,04,02,02,28,1002.61
2010,04,02,02,29,1002.64
2010,04,02,02,30,1002.61
2010,04,02,02,31,1002.61
2010,04,02,02,32,1002.54
2010,04,02,02,33,1002.57
2010,04,02,02,34,1002.41
2010,04,02,02,35,1002.41
2010,04,02,02,36,1002.37
2010,04,02,02,37,1002.27
2010,04,02,02,38,1002.27
2010,04,02,02,39,1002.27
2010,04,02,02,40,1002.34
2010,04,02,02,41,1002.27
2010,04,02,02,42,1002.34
2010,04,02,02,43,1002.24
2010,04,02,02,44,1002.24
2010,04,02,02,45,1002.24
2010,04,02,02,46,1002.17
2010,04,02,02,47,1002.13
2010,04,02,02,48,1002.13
2010,04,02,02,49,1001.97
2010,04,02,02,50,1002.00
2010,04,02,02,51,1001.97
2010,04,02,02,52,1002.03
2010,04,02,02,53,1002.03
2010,04,02,02,54,1002.00
2010,04,02,02,55,1002.07
2010,04,02,02,56,1002.00
2010,04,02,02,57,1001.97
2010,04,02,02,58,1001.93
2010,04,02,02,59,1001.86
2010,04,02,03,00,1001.90
2010,04,02,03,01,1001.76
2010,04,02,03,02,1001.76
2010,04,02,03,03,1001.73
2010,04,02,03,04,1001.73
2010,04,02,03,05,1001.66
2010,04,02,03,06,1001.66
2010,04,02,03,07,1001.69
2010,04,02,03,08,1001.66
2010,04,02,03,09,1001.63
2010,04,02,03,10,1001.69
2010,04,02,03,11,1001.66
2010,04,02,03,12,1001.76
2010,04,02,03,13,1001.66
2010,04,02,03,14,1001.63
2010,04,02,03,15,1001.59
2010,04,02,03,16,1001.56
2010,04,02,03,17,1001.49
2010,04,02,03,18,1001.46
2010,04,02,03,19,1001.46
2010,04,02,03,20,1001.46
2010,04,02,03,21,1001.42
2010,04,02,03,22,1001.39
2010,04,02,03,23,1001.32
2010,04,02,03,24,1001.29
2010,04,02,03,25,1001.29
2010,04,02,03,26,1001.32
2010,04,02,03,27,1001.32
2010,04,02,03,28,1001.39
2010,04,02,03,29,1001.39
2010,04,02,03,30,1001.46
2010,04,02,03,31,1001.42
2010,04,02,03,32,1001.42
2010,04,02,03,33,1001.33
2010,04,02,03,34,1001.32
2010,04,02,03,35,1001.39
2010,04,02,03,36,1001.29
2010,04,02,03,37,1001.29
2010,04,02,03,38,1001.29
2010,04,02,03,39,1001.25
2010,04,02,03,40,1001.15
2010,04,02,03,41,1001.15
2010,04,02,03,42,1001.12
2010,04,02,03,43,1001.05
2010,04,02,03,44,1001.02
2010,04,02,03,45,1001.02
2010,04,02,03,46,1001.02
2010,04,02,03,47,1001.02
2010,04,02,03,48,1001.02
2010,04,02,03,49,1001.02
2010,04,02,03,50,1001.02
2010,04,02,03,51,1001.05
2010,04,02,03,52,1001.08
2010,04,02,03,53,1001.05
2010,04,02,03,54,1001.05
2010,04,02,03,55,1001.05
2010,04,02,03,56,1001.02
2010,04,02,03,57,1000.98
2010,04,02,03,58,1000.92
2010,04,02,03,59,1000.85
2010,04,02,04,00,1000.85
2010,04,02,04,01,1000.88
2010,04,02,04,02,1000.92
2010,04,02,04,03,1000.98
2010,04,02,04,04,1000.95
2010,04,02,04,05,1000.95
2010,04,02,04,06,1000.88
2010,04,02,04,07,1000.81
2010,04,02,04,08,1000.75
2010,04,02,04,09,1000.78
2010,04,02,04,10,1000.81
2010,04,02,04,11,1000.81
2010,04,02,04,12,1000.78
2010,04,02,04,13,1000.78
2010,04,02,04,14,1000.71
2010,04,02,04,15,1000.71
2010,04,02,04,16,1000.78
2010,04,02,04,17,1000.78
2010,04,02,04,18,1000.78
2010,04,02,04,19,1000.78
2010,04,02,04,20,1000.75
2010,04,02,04,21,1000.68
2010,04,02,04,22,1000.68
2010,04,02,04,23,1000.58
2010,04,02,04,24,1000.58
2010,04,02,04,25,1000.54
2010,04,02,04,26,1000.54
2010,04,02,04,27,1000.51
2010,04,02,04,28,1000.48
2010,04,02,04,29,1000.44
2010,04,02,04,30,1000.44
2010,04,02,04,31,1000.44
2010,04,02,04,32,1000.41
2010,04,02,04,33,1000.37
2010,04,02,04,34,1000.37
2010,04,02,04,35,1000.36
2010,04,02,04,36,1000.24
2010,04,02,04,37,1000.24
2010,04,02,04,38,1000.20
2010,04,02,04,39,1000.17
2010,04,02,04,40,1000.20
2010,04,02,04,41,1000.17
2010,04,02,04,42,1000.17
2010,04,02,04,43,1000.20
2010,04,02,04,44,1000.17
2010,04,02,04,45,1000.14
2010,04,02,04,46,1000.07
2010,04,02,04,47,1000.03
2010,04,02,04,48,1000.07
2010,04,02,04,49,1000.03
2010,04,02,04,50,1000.03
2010,04,02,04,51,1000.00
2010,04,02,04,52,1000.07
2010,04,02,04,53,1000.07
2010,04,02,04,54,1000.00
2010,04,02,04,55,1000.00
2010,04,02,04,56,999.97
2010,04,02,04,57,999.93
2010,04,02,04,58,999.90
2010,04,02,04,59,999.90
2010,04,02,05,00,999.76
2010,04,02,05,01,999.70
2010,04,02,05,02,999.70
2010,04,02,05,03,999.63
2010,04,02,05,04,999.56
2010,04,02,05,05,999.59
2010,04,02,05,06,999.56
2010,04,02,05,07,999.53
2010,04,02,05,08,999.53
2010,04,02,05,09,999.46
2010,04,02,05,10,999.46
2010,04,02,05,11,999.39
2010,04,02,05,12,999.32
2010,04,02,05,13,999.31
2010,04,02,05,14,999.19
2010,04,02,05,15,999.15
2010,04,02,05,16,999.12
2010,04,02,05,17,999.12
2010,04,02,05,18,999.02
2010,04,02,05,19,998.99
2010,04,02,05,20,998.95
2010,04,02,05,21,998.92
2010,04,02,05,22,998.85
2010,04,02,05,23,998.85
2010,04,02,05,24,998.78
2010,04,02,05,25,998.82
2010,04,02,05,26,998.82
2010,04,02,05,27,998.75
2010,04,02,05,28,998.71
2010,04,02,05,29,998.68
2010,04,02,05,30,998.65
2010,04,02,05,31,998.58
2010,04,02,05,32,998.48
2010,04,02,05,33,998.34
2010,04,02,05,34,998.21
2010,04,02,05,35,998.14
2010,04,02,05,36,998.04
2010,04,02,05,37,998.04
2010,04,02,05,38,997.97
2010,04,02,05,39,997.90
2010,04,02,05,40,997.77
2010,04,02,05,41,997.77
2010,04,02,05,42,997.66
2010,04,02,05,43,997.60
2010,04,02,05,44,997.56
2010,04,02,05,45,997.46
2010,04,02,05,46,997.50
2010,04,02,05,47,997.46
2010,04,02,05,48,997.43
2010,04,02,05,49,997.39
2010,04,02,05,50,997.29
2010,04,02,05,51,997.29
2010,04,02,05,52,997.19
2010,04,02,05,53,997.12
2010,04,02,05,54,997.12
2010,04,02,05,55,997.12
2010,04,02,05,56,997.02
2010,04,02,05,57,997.09
2010,04,02,05,58,996.99
2010,04,02,05,59,996.95
2010,04,02,06,00,996.82
2010,04,02,06,01,996.75
2010,04,02,06,02,996.68
2010,04,02,06,03,996.72
2010,04,02,06,04,996.51
2010,04,02,06,05,996.38
2010,04,02,06,06,996.31
2010,04,02,06,07,996.31
2010,04,02,06,08,996.28
2010,04,02,06,09,996.17
2010,04,02,06,10,996.24
2010,04,02,06,11,996.11
2010,04,02,06,12,996.14
2010,04,02,06,13,995.97
2010,04,02,06,14,995.94
2010,04,02,06,15,995.84
2010,04,02,06,16,995.80
2010,04,02,06,17,995.70
2010,04,02,06,18,995.73
2010,04,02,06,19,995.67
2010,04,02,06,20,995.53
2010,04,02,06,21,995.46
2010,04,02,06,22,995.46
2010,04,02,06,23,995.36
2010,04,02,06,24,995.29
2010,04,02,06,25,995.26
2010,04,02,06,26,995.26
2010,04,02,06,27,995.26
2010,04,02,06,28,995.12
2010,04,02,06,29,995.14
2010,04,02,06,30,994.85
2010,04,02,06,31,994.99
2010,04,02,06,32,995.02
2010,04,02,06,33,995.09
2010,04,02,06,34,994.96
2010,04,02,06,35,994.89
2010,04,02,06,36,994.85
2010,04,02,06,37,994.96
2010,04,02,06,38,994.89
2010,04,02,06,39,995.09
2010,04,02,06,40,995.16
2010,04,02,06,41,995.06
2010,04,02,06,42,995.02
2010,04,02,06,43,995.06
2010,04,02,06,44,995.02
2010,04,02,06,45,994.99
2010,04,02,06,46,994.85
2010,04,02,06,47,994.92
2010,04,02,13,11,985.51
2010,04,02,13,12,985.58
2010,04,02,13,13,985.64
2010,04,02,13,14,985.85
2010,04,02,13,15,985.91
2010,04,02,13,16,985.91
2010,04,02,13,17,985.85
2010,04,02,13,18,985.81
2010,04,02,13,19,985.95
2010,04,02,13,20,985.85
2010,04,02,13,21,985.88
2010,04,02,13,22,985.95
2010,04,02,13,23,985.98
2010,04,02,13,24,985.81
2010,04,02,13,25,985.82
2010,04,02,13,26,985.91
2010,04,02,13,27,985.91
2010,04,02,13,28,985.91
2010,04,02,13,29,986.05
2010,04,02,13,30,986.15
2010,04,02,13,31,986.05
2010,04,02,13,32,986.02
2010,04,02,13,33,985.98
2010,04,02,13,34,985.95
2010,04,02,13,35,986.02
2010,04,02,13,36,986.02
2010,04,02,13,37,986.14
2010,04,02,13,38,986.25
2010,04,02,13,39,986.22
2010,04,02,13,40,986.25
2010,04,02,13,41,986.22
2010,04,02,13,42,986.32
2010,04,02,13,43,986.25
2010,04,02,13,44,986.29
2010,04,02,13,45,986.22
2010,04,02,13,46,986.15
2010,04,02,13,47,986.18
2010,04,02,13,48,986.15
2010,04,02,13,49,986.24
2010,04,02,13,50,986.12
2010,04,02,13,51,986.18
2010,04,02,13,52,986.08
2010,04,02,13,53,986.08
2010,04,02,13,54,986.15
2010,04,02,13,55,986.12
2010,04,02,13,56,986.12
2010,04,02,13,57,986.08
2010,04,02,13,58,986.15
2010,04,02,13,59,986.18
2010,04,02,14,00,986.18
2010,04,02,14,01,986.18
2010,04,02,14,02,986.15
2010,04,02,14,03,986.12
2010,04,02,14,04,986.15
2010,04,02,14,05,986.22
2010,04,02,14,06,986.25
2010,04,02,14,07,986.22
2010,04,02,14,08,986.18
2010,04,02,14,09,986.25
2010,04,02,14,10,986.35
2010,04,02,14,11,986.49
2010,04,02,14,12,986.46
2010,04,02,14,13,986.46
2010,04,02,14,14,986.46
2010,04,02,14,15,986.42
2010,04,02,14,16,986.52
2010,04,02,14,17,986.32
2010,04,02,14,18,986.32
2010,04,02,14,19,986.25
2010,04,02,14,20,986.29
2010,04,02,14,21,986.32
2010,04,02,14,22,986.35
2010,04,02,14,23,986.35
2010,04,02,14,24,986.42
2010,04,02,14,25,986.42
2010,04,02,14,26,986.39
2010,04,02,14,27,986.35
2010,04,02,14,28,986.32
2010,04,02,14,29,986.32
2010,04,02,14,30,986.39
2010,04,02,14,31,986.46
2010,04,02,14,32,986.56
2010,04,02,14,33,986.56
2010,04,02,14,34,986.59
2010,04,02,14,35,986.49
2010,04,02,14,36,986.52
2010,04,02,14,37,986.56
2010,04,02,14,38,986.59
2010,04,02,14,39,986.56
2010,04,02,14,40,986.59
2010,04,02,14,41,986.62
2010,04,02,14,42,986.59
2010,04,02,14,43,986.66
2010,04,02,14,44,986.69
2010,04,02,14,45,986.73
2010,04,02,14,46,986.79
2010,04,02,14,47,986.79
2010,04,02,14,48,986.79
2010,04,02,14,49,986.83
2010,04,02,14,50,986.83
2010,04,02,14,51,986.90
2010,04,02,14,52,986.93
2010,04,02,14,53,986.90
2010,04,02,14,54,987.00
2010,04,02,14,55,987.00
2010,04,02,14,56,987.00
2010,04,02,14,57,987.00
2010,04,02,14,58,986.96
2010,04,02,14,59,987.03
2010,04,02,15,00,987.06
2010,04,02,15,01,987.17
2010,04,02,15,02,987.27
2010,04,02,15,03,987.23
2010,04,02,15,04,987.27
2010,04,02,15,05,987.30
2010,04,02,15,06,987.27
2010,04,02,15,07,987.34
2010,04,02,15,08,987.34
2010,04,02,15,09,987.51
2010,04,02,15,10,987.44
2010,04,02,15,11,987.51
2010,04,02,15,12,987.47
2010,04,02,15,13,987.54
2010,04,02,15,14,987.64
2010,04,02,15,15,987.57
2010,04,02,15,16,987.57
2010,04,02,15,17,987.57
2010,04,02,15,18,987.57
2010,04,02,15,19,987.64
2010,04,02,15,20,987.57
2010,04,02,15,21,987.67
2010,04,02,15,22,987.71
2010,04,02,15,23,987.78
2010,04,02,15,24,987.88
2010,04,02,15,25,987.78
2010,04,02,15,26,987.81
2010,04,02,15,27,987.78
2010,04,02,15,28,987.88
2010,04,02,15,29,988.00
2010,04,02,15,30,988.05
2010,04,02,15,31,988.08
2010,04,02,15,32,988.08
2010,04,02,15,33,988.08
2010,04,02,15,34,988.11
2010,04,02,15,35,988.15
2010,04,02,15,36,988.22
2010,04,02,15,37,988.25
2010,04,02,15,38,988.18
2010,04,02,15,39,988.25
2010,04,02,15,40,988.22
2010,04,02,15,41,988.22
2010,04,02,15,42,988.32
2010,04,02,15,43,988.25
2010,04,02,15,44,988.32
2010,04,02,15,45,988.32
2010,04,02,15,46,988.28
2010,04,02,15,47,988.28
2010,04,02,15,48,988.35
2010,04,02,15,49,988.39
2010,04,02,15,50,988.39
2010,04,02,15,51,988.42
2010,04,02,15,52,988.35
2010,04,02,15,53,988.45
2010,04,02,15,54,988.35
2010,04,02,15,55,988.42
2010,04,02,15,56,988.42
2010,04,02,15,57,988.45
2010,04,02,15,58,988.42
2010,04,02,15,59,988.45
2010,04,02,16,00,988.42
2010,04,02,16,01,988.45
2010,04,02,16,02,988.55
2010,04,02,16,03,988.62
2010,04,02,16,04,988.69
2010,04,02,16,05,988.62
2010,04,02,16,06,988.62
2010,04,02,16,07,988.69
2010,04,02,16,08,988.72
2010,04,02,16,09,988.72
2010,04,02,16,10,988.72
2010,04,02,16,11,988.59
2010,04,02,16,12,988.66
2010,04,02,16,13,988.66
2010,04,02,16,14,988.59
2010,04,02,16,15,988.69
2010,04,02,16,16,988.66
2010,04,02,16,17,988.55
2010,04,02,16,18,988.55
2010,04,02,16,19,988.62
2010,04,02,16,20,988.55
2010,04,02,16,21,988.66
2010,04,02,16,22,988.66
2010,04,02,16,23,988.66
2010,04,02,16,24,988.69
2010,04,02,16,25,988.72
2010,04,02,16,26,988.69
2010,04,02,16,27,988.72
2010,04,02,16,28,988.69
2010,04,02,16,29,988.69
2010,04,02,16,30,988.62
2010,04,02,16,31,988.62
2010,04,02,16,32,988.72
2010,04,02,16,33,988.79
2010,04,02,16,34,988.76
2010,04,02,16,35,988.76
2010,04,02,16,36,988.76
2010,04,02,16,37,988.76
2010,04,02,16,38,988.89
2010,04,02,16,39,988.83
2010,04,02,16,40,988.86
2010,04,02,16,41,988.86
2010,04,02,16,42,989.03
2010,04,02,16,43,988.96
2010,04,02,16,44,989.00
2010,04,02,16,45,988.96
2010,04,02,16,46,989.03
2010,04,02,16,47,989.06
2010,04,02,16,48,989.10
2010,04,02,16,49,989.06
2010,04,02,16,50,989.10
2010,04,02,16,51,989.10
2010,04,02,16,52,989.06
2010,04,02,16,53,989.10
2010,04,02,16,54,989.13
2010,04,02,16,55,989.20
2010,04,02,16,56,989.20
2010,04,02,16,57,989.27
2010,04,02,16,58,989.23
2010,04,02,16,59,989.27
2010,04,02,17,00,989.27
2010,04,02,17,01,989.39
2010,04,02,17,02,989.33
2010,04,02,17,03,989.37
2010,04,02,17,04,989.40
2010,04,02,17,05,989.33
2010,04,02,17,06,989.37
2010,04,02,17,07,989.37
2010,04,02,17,08,989.40
2010,04,02,17,09,989.47
2010,04,02,17,10,989.50
2010,04,02,17,11,989.54
2010,04,02,17,12,989.54
2010,04,02,17,13,989.47
2010,04,02,17,14,989.59
2010,04,02,17,15,989.77
2010,04,02,17,16,989.81
2010,04,02,17,17,989.57
2010,04,02,17,18,989.81
2010,04,02,17,19,990.01
2010,04,02,17,20,989.91
2010,04,02,17,21,989.94
2010,04,02,17,22,989.94
2010,04,02,17,23,989.74
2010,04,02,17,24,989.88
2010,04,02,17,25,989.94
2010,04,02,17,26,990.08
2010,04,02,17,27,989.98
2010,04,02,17,28,990.08
2010,04,02,17,29,990.08
2010,04,02,17,30,990.25
2010,04,02,17,31,990.21
2010,04,02,17,32,990.18
2010,04,02,17,33,990.28
2010,04,02,17,34,990.21
2010,04,02,17,35,990.18
2010,04,02,17,36,990.04
2010,04,02,17,37,990.11
2010,04,02,17,38,990.35
2010,04,02,17,39,990.18
2010,04,02,17,40,990.28
2010,04,02,17,41,990.35
2010,04,02,17,42,990.38
2010,04,02,17,43,990.38
2010,04,02,17,44,990.19
2010,04,02,17,45,990.21
2010,04,02,17,46,990.01
2010,04,02,17,47,990.11
2010,04,02,17,48,990.11
2010,04,02,17,49,990.08
2010,04,02,17,50,989.91
2010,04,02,17,51,990.01
2010,04,02,17,52,989.84
2010,04,02,17,53,989.77
2010,04,02,17,54,989.84
2010,04,02,17,55,989.74
2010,04,02,17,56,989.77
2010,04,02,17,57,989.77
2010,04,02,17,58,989.81
2010,04,02,17,59,989.81
2010,04,02,18,00,989.77
2010,04,02,18,01,989.84
2010,04,02,18,02,989.88
2010,04,02,18,03,989.91
2010,04,02,18,04,990.11
2010,04,02,18,05,990.08
2010,04,02,18,06,990.08
2010,04,02,18,07,990.04
2010,04,02,18,08,990.04
2010,04,02,18,09,990.04
2010,04,02,18,10,990.04
2010,04,02,18,11,990.04
2010,04,02,18,12,990.08
2010,04,02,18,13,990.04
2010,04,02,18,14,990.01
2010,04,02,18,15,989.94
2010,04,02,18,16,990.01
2010,04,02,18,17,990.04
2010,04,02,18,18,990.08
2010,04,02,18,19,990.04
2010,04,02,18,20,990.04
2010,04,02,18,21,990.21
2010,04,02,18,22,990.15
2010,04,02,18,23,990.25
2010,04,02,18,24,990.25
2010,04,02,18,25,990.25
2010,04,02,18,26,990.42
2010,04,02,18,27,990.42
2010,04,02,18,28,990.49
2010,04,02,18,29,990.49
2010,04,02,18,30,990.55
2010,04,02,18,31,990.55
2010,04,02,18,32,990.62
2010,04,02,18,33,990.52
2010,04,02,18,34,990.59
2010,04,02,18,35,990.69
2010,04,02,18,36,990.69
2010,04,02,18,37,990.65
2010,04,02,18,38,990.59
2010,04,02,18,39,990.62
2010,04,02,18,40,990.69
2010,04,02,18,41,990.52
2010,04,02,18,42,990.52
2010,04,02,18,43,990.62
2010,04,02,18,44,990.72
2010,04,02,18,45,990.72
2010,04,02,18,46,990.69
2010,04,02,18,47,990.72
2010,04,02,18,48,990.76
2010,04,02,18,49,990.76
2010,04,02,18,50,990.82
2010,04,02,18,51,990.89
2010,04,02,18,52,990.89
2010,04,02,18,53,990.89
2010,04,02,18,54,991.03
2010,04,02,18,55,990.93
2010,04,02,18,56,991.06
2010,04,02,18,57,991.03
2010,04,02,18,58,991.06
2010,04,02,18,59,991.09
2010,04,02,19,00,991.20
2010,04,02,19,01,991.37
2010,04,02,19,02,991.40
2010,04,02,19,03,991.43
2010,04,02,19,04,991.37
2010,04,02,19,05,991.49
2010,04,02,19,06,991.57
2010,04,02,19,07,991.47
2010,04,02,19,08,991.70
2010,04,02,19,09,991.67
2010,04,02,19,10,991.74
2010,04,02,19,11,991.87
2010,04,02,19,12,991.67
2010,04,02,19,13,991.70
2010,04,02,19,14,991.98
2010,04,02,19,15,992.08
2010,04,02,19,16,991.87
2010,04,02,19,17,992.14
2010,04,02,19,18,992.08
2010,04,02,19,19,992.04
2010,04,02,19,20,991.98
2010,04,02,19,21,991.87
2010,04,02,19,22,991.87
2010,04,02,19,23,991.91
2010,04,02,19,24,991.98
2010,04,02,19,25,992.04
2010,04,02,19,26,992.01
2010,04,02,19,27,991.94
2010,04,02,19,28,992.14
2010,04,02,19,29,992.14
2010,04,02,19,30,992.14
2010,04,02,19,31,992.14
2010,04,02,19,32,992.04
2010,04,02,19,33,992.31
2010,04,02,19,34,991.81
2010,04,02,19,35,992.14
2010,04,02,19,36,992.11
2010,04,02,19,37,992.08
2010,04,02,19,38,992.11
2010,04,02,19,39,992.01
2010,04,02,19,40,992.35
2010,04,02,19,41,992.04
2010,04,02,19,42,992.08
2010,04,02,19,43,992.01
2010,04,02,19,44,991.98
2010,04,02,19,45,992.04
2010,04,02,19,46,992.08
2010,04,02,19,47,992.08
2010,04,02,19,48,992.04
2010,04,02,19,49,992.18
2010,04,02,19,50,992.11
2010,04,02,19,51,992.11
2010,04,02,19,52,992.08
2010,04,02,19,53,992.14
2010,04,02,19,54,992.08
2010,04,02,19,55,992.31
2010,04,02,19,56,992.25
2010,04,02,19,57,992.38
2010,04,02,19,58,992.38
2010,04,02,19,59,992.35
2010,04,02,20,00,992.35
2010,04,02,20,01,992.47
2010,04,02,20,02,992.62
2010,04,02,20,03,992.55
2010,04,02,20,04,992.62
2010,04,02,20,05,992.45
2010,04,02,20,06,992.52
2010,04,02,20,07,992.52
2010,04,02,20,08,992.69
2010,04,02,20,09,992.69
2010,04,02,20,10,992.65
2010,04,02,20,11,992.72
2010,04,02,20,12,992.69
2010,04,02,20,13,992.75
2010,04,02,20,14,992.65
2010,04,02,20,15,992.65
2010,04,02,20,16,992.82
2010,04,02,20,17,992.79
2010,04,02,20,18,993.06
2010,04,02,20,19,992.79
2010,04,02,20,20,992.89
2010,04,02,20,21,992.92
2010,04,02,20,22,992.92
2010,04,02,20,23,992.89
2010,04,02,20,24,992.96
2010,04,02,20,25,993.13
2010,04,02,20,26,993.03
2010,04,02,20,27,993.06
2010,04,02,20,28,993.16
2010,04,02,20,29,993.13
2010,04,02,20,30,993.03
2010,04,02,20,31,993.12
2010,04,02,20,32,993.30
2010,04,02,20,33,993.19
2010,04,02,20,34,993.26
2010,04,02,20,35,993.16
2010,04,02,20,36,993.26
2010,04,02,20,37,993.23
2010,04,02,20,38,993.19
2010,04,02,20,39,993.47
2010,04,02,20,40,993.36
2010,04,02,20,41,993.53
2010,04,02,20,42,993.43
2010,04,02,20,43,993.47
2010,04,02,20,44,993.57
2010,04,02,20,45,993.63
2010,04,02,20,46,993.63
2010,04,02,20,47,993.53
2010,04,02,20,48,993.60
2010,04,02,20,49,993.63
2010,04,02,20,50,993.57
2010,04,02,20,51,993.84
2010,04,02,20,52,993.87
2010,04,02,20,53,993.80
2010,04,02,20,54,993.94
2010,04,02,20,55,993.84
2010,04,02,20,56,993.91
2010,04,02,20,57,994.07
2010,04,02,20,58,994.07
2010,04,02,20,59,994.07
2010,04,02,21,00,994.01
2010,04,02,21,01,994.07
2010,04,02,21,02,994.11
2010,04,02,21,03,994.24
2010,04,02,21,04,994.35
2010,04,02,21,05,994.38
2010,04,02,21,06,994.38
2010,04,02,21,07,994.45
2010,04,02,21,08,994.48
2010,04,02,21,09,994.38
2010,04,02,21,10,994.41
2010,04,02,21,11,994.52
2010,04,02,21,12,994.45
2010,04,02,21,13,994.48
2010,04,02,21,14,994.48
2010,04,02,21,15,994.55
2010,04,02,21,16,994.48
2010,04,02,21,17,994.58
2010,04,02,21,18,994.48
2010,04,02,21,19,994.48
2010,04,02,21,20,994.61
2010,04,02,21,21,994.58
2010,04,02,21,22,994.55
2010,04,02,21,23,994.55
2010,04,02,21,24,994.65
2010,04,02,21,25,994.62
2010,04,02,21,26,994.55
2010,04,02,21,27,994.52
2010,04,02,21,28,994.62
2010,04,02,21,29,994.55
2010,04,02,21,30,994.52
2010,04,02,21,31,994.71
2010,04,02,21,32,994.79
2010,04,02,21,33,994.75
2010,04,02,21,34,994.75
2010,04,02,21,35,994.79
2010,04,02,21,36,994.82
2010,04,02,21,37,994.85
2010,04,02,21,38,994.89
2010,04,02,21,39,994.89
2010,04,02,21,40,994.89
2010,04,02,21,41,994.96
2010,04,02,21,42,994.92
2010,04,02,21,43,994.99
2010,04,02,21,44,995.06
2010,04,02,21,45,995.02
2010,04,02,21,46,994.99
2010,04,02,21,47,995.02
2010,04,02,21,48,995.09
2010,04,02,21,49,995.06
2010,04,02,21,50,995.16
2010,04,02,21,51,995.19
2010,04,02,21,52,995.23
2010,04,02,21,53,995.23
2010,04,02,21,54,995.23
2010,04,02,21,55,995.40
2010,04,02,21,56,995.23
2010,04,02,21,57,995.35
2010,04,02,21,58,995.36
2010,04,02,21,59,995.40
2010,04,02,22,00,995.40
2010,04,02,22,01,995.52
2010,04,02,22,02,995.36
2010,04,02,22,03,995.29
2010,04,02,22,04,995.50
2010,04,02,22,05,995.56
2010,04,02,22,06,995.53
2010,04,02,22,07,995.60
2010,04,02,22,08,995.56
2010,04,02,22,09,995.73
2010,04,02,22,10,995.70
2010,04,02,22,11,995.84
2010,04,02,22,12,995.87
2010,04,02,22,13,995.90
2010,04,02,22,14,996.04
2010,04,02,22,15,996.01
2010,04,02,22,16,996.01
2010,04,02,22,17,996.21
2010,04,02,22,18,996.08
2010,04,02,22,19,996.11
2010,04,02,22,20,996.04
2010,04,02,22,21,996.17
2010,04,02,22,22,996.14
2010,04,02,22,23,996.21
2010,04,02,22,24,996.28
2010,04,02,22,25,996.28
2010,04,02,22,26,996.21
2010,04,02,22,27,996.28
2010,04,02,22,28,996.24
2010,04,02,22,29,996.21
2010,04,02,22,30,996.17
2010,04,02,22,31,996.14
2010,04,02,22,32,996.01
2010,04,02,22,33,996.04
2010,04,02,22,34,996.01
2010,04,02,22,35,995.87
2010,04,02,22,36,996.04
2010,04,02,22,37,996.01
2010,04,02,22,38,996.01
2010,04,02,22,39,996.11
2010,04,02,22,40,996.14
2010,04,02,22,41,996.17
2010,04,02,22,42,996.21
2010,04,02,22,43,996.31
2010,04,02,22,44,996.28
2010,04,02,22,45,996.24
2010,04,02,22,46,996.24